Home   Weather   Helsinki   Past weeks
Flag for Finland

Past Weather in Helsinki, Finland — Yesterday and Last 2 Weeks

Now
32 °F

Clear.


Feels Like: 27 °F
Forecast: 37 / 29 °F
Wind: 5 mph from Southwest

Location: Helsinki-Vantaa

Current Time: Mar 22, 2019 at 11:02:11 pm

Latest Report: Mar 22, 2019 at 10:20 pm


Visibility: 10 mi

Pressure: 30.30 "Hg

Humidity: 75%

Dew Point: 25 °F

Location of HelsinkiLocation

Past Weather in Helsinki — Graph

°F

Helsinki Temperature Yesterday

Maximum temperature yesterday: 43 °F (at 11:50 am)
Minimum temperature yesterday: 32 °F (at 12:20 am)
Average temperature yesterday: 37 °F

High & Low Weather Summary for the Past Weeks

 TemperatureHumidityPressure
High45 °F (Mar 22, 4:20 pm)100% (Mar 7, 9:20 pm)30.33 "Hg (Mar 7, 9:20 pm)
Low3 °F (Mar 13, 7:50 am)29% (Mar 22, 2:20 pm)28.88 "Hg (Mar 9, 1:20 am)
Average32 °F87%29.53 "Hg
* Reported Mar 7 9:20 pm — Mar 22 9:50 pm, Helsinki. Weather by CustomWeather, © 2019

Note: Actual official high and low records may vary slightly from our data, if they occured in-between our weather recording intervals... More about our weather records

Advertising

Helsinki Weather History for the Previous 24 Hours

Scroll right to see more
 ConditionsComfort  
Time TempWeatherWind HumidityBarometerVisibility
9:50 pm
Fri, Mar 22
32 °FClear.3 mph69%30.30 "Hg10 mi
9:20 pm34 °FClear.5 mph65%30.30 "Hg10 mi
8:50 pm36 °FClear.6 mph60%30.33 "Hg10 mi
8:20 pm36 °FClear.6 mph60%30.33 "Hg10 mi
7:50 pm37 °FClear.8 mph56%30.33 "Hg10 mi
7:20 pm39 °FClear.7 mph52%30.33 "Hg10 mi
6:50 pm39 °FClear.7 mph48%30.33 "Hg10 mi
6:20 pm43 °FSunny.6 mph39%30.33 "Hg10 mi
5:50 pm43 °FSunny.13 mph36%30.30 "Hg10 mi
5:20 pm43 °FSunny.15 mph34%30.30 "Hg10 mi
4:50 pm43 °FSunny.17 mph34%30.30 "Hg10 mi
4:20 pm45 °FSunny.18 mph31%30.27 "Hg10 mi
3:50 pm43 °FSunny.17 mph34%30.27 "Hg10 mi
3:20 pm43 °FSunny.21 mph31%30.27 "Hg10 mi
2:50 pm43 °FSunny.24 mph31%30.27 "Hg10 mi
2:20 pm43 °FSunny.20 mph29%30.24 "Hg10 mi
1:50 pm43 °FSunny.25 mph34%30.24 "Hg10 mi
1:20 pm43 °FSunny.23 mph34%30.24 "Hg10 mi
12:50 pm41 °FSunny.23 mph39%30.24 "Hg10 mi
12:20 pm41 °FSunny.25 mph39%30.24 "Hg10 mi
11:50 am41 °FSunny.28 mph42%30.21 "Hg10 mi
11:20 am39 °FSunny.24 mph45%30.21 "Hg10 mi
10:50 am39 °FSunny.23 mph45%30.21 "Hg10 mi
10:20 am37 °FSunny.22 mph52%30.18 "Hg10 mi
9:50 am37 °FSunny.23 mph52%30.18 "Hg10 mi
9:20 am36 °FSunny.23 mph56%30.15 "Hg10 mi
8:50 am36 °FSunny.23 mph56%30.15 "Hg10 mi
8:20 am36 °FSunny.22 mph56%30.12 "Hg10 mi
7:50 am34 °FSunny.21 mph60%30.12 "Hg10 mi
7:20 am34 °FSunny.18 mph60%30.09 "Hg10 mi
6:50 am34 °FSunny.21 mph60%30.09 "Hg10 mi
6:20 am34 °FSunny.21 mph60%30.07 "Hg10 mi
5:50 am34 °FClear.20 mph60%30.04 "Hg10 mi
5:20 am34 °FClear.22 mph60%30.04 "Hg10 mi
4:50 am34 °FClear.21 mph60%30.01 "Hg10 mi
4:20 am36 °FClear.21 mph56%30.01 "Hg10 mi
3:50 am36 °FClear.22 mph56%30.01 "Hg10 mi
3:20 am36 °FClear.18 mph56%29.98 "Hg10 mi
2:50 am36 °FClear.17 mph56%29.98 "Hg10 mi
2:20 am37 °FClear.17 mph56%29.95 "Hg10 mi
1:50 am37 °FClear.18 mph56%29.92 "Hg10 mi
1:20 am37 °FClear.21 mph56%29.92 "Hg10 mi
12:50 am39 °FClear.20 mph56%29.92 "Hg10 mi
12:20 am39 °FClear.20 mph61%29.92 "Hg10 mi
11:50 pm
Thu, Mar 21
39 °FClear.17 mph70%29.89 "Hg10 mi
11:20 pm39 °FClear.15 mph75%29.86 "Hg10 mi
Weather by CustomWeather, © 2019

See weather overview